SL-8 DEB, 21185

Orbit data source: Space-Track

SL-8 DEB, 21185 is space debris in LEO originally from a launch on Tue, 12 Feb 1991 UTC launched from the Plesetsk Missile And Space Complex (PKMTR). Debris objects in space refer to the collection of defunct objects orbiting the Earth. Examples of debris include non-operational satellites, rocket bodies, and fragments generated from explosions, collisions, or faulty payload assembly.

Loading next visibility...
Identifier
21185, 1991-009AY
Orbit
LEO
Country
Flag of CISCIS
Related business
Manufacturer
Unknown
Mission
Spacecraft
Bus & Motor
Unknown
Mass
Unknown
Launch date (UTC)
1991-02-12 (35 years ago)
Launch vehicle
Unknown
Launch site
Plesetsk Missile And Space Complex (PKMTR)
Object type
Payload
Rocket body
Debris
Shape & HBR
Unknown shape, 0.1 m
Radar Cross Section
Medium (>0.1 m² and <1 m²)

Expand to show TLE details & history
Last TLE update: 2 days ago

TLE from 2 days ago
0 SL-8 DEB
1 21185U 91009AY  26171.45160677 -.00000027  00000-0 -13177-3 0  9992
2 21185  74.0224 278.5568 0204149  69.8191   4.1207 12.16141295566398
Epoch: 2026-06-20T10:50Z
TLE epoch observation values (Epoch: 2026-06-20T10:50:18.824Z)
Latitude
67.70155°
Longitude
-108.68168°
Altitude
1,458.099 km
Speed
7.212 km/s
True Right ascension
21h 30m 15s
True Declination
67° 35' 29"
Sunlit
Object was in daylight at epoch
Visualization orbit readout
Latitude
Unknown
Longitude
Unknown
Altitude
Unknown
Speed
Unknown
Apparent Right ascension
Unknown
Apparent Declination
Unknown
Sunlit
N/A
Visualization observer readout
Local Sidereal Time
05:18:07
Azimuth
Unknown
Elevation
Unknown
Doppler factor
Unknown
Orbital elements
Apogee altitude
1,770.288 km
Perigee altitude
1,444.245 km
Semi-major axis
7,985.403 km
Eccentricity
0.02041
Inclination
74.0224°
RAAN
278.5568°
Arg. of periapsis
69.8191°
True anomaly
4.29319°
Mean anomaly
4.1207°
Eccentric anomaly
4.2065°
Mean motion
3.04157 °/min
Orbital period
118.36 mins
BSTAR
-0.00013177
Loading maneuver chart data...
Computing Atmospheric mass density...
Loading historical data...
Loading historical data...
Loading historical data...
Loading historical data...
Loading historical data...
Loading historical data...
Loading historical data...

Documentation

Showing up to 5 results
|